Weather History for Rawlins, WY

Change the Weather History Date:

Sunday, December 9, 2012

  Actual Average Record
Temperature  
Mean Temperature 6 °F 22 °F  
Max Temperature 16 °F 31 °F 54 °F (1981)
Min Temperature -4 °F 12 °F -24 °F (1972)
Degree Days  
Heating Degree Days 59 43  
Month to date heating degree days 302 383  
Since 1 July heating degree days 1972 2489  
Cooling Degree Days 0 0  
Month to date cooling degree days 0 0  
Year to date cooling degree days 419 186  
Moisture  
Dew Point 1 °F    
Average Humidity 75    
Maximum Humidity 91    
Minimum Humidity 58    
Precipitation  
Precipitation T in 0.01 in 0.29 in (1985)
Month to date precipitation 0.04 0.12  
Year to date precipitation 4.63 8.94  
Sea Level Pressure  
Sea Level Pressure 30.22 in    
Wind  
Wind Speed 9 mph (WNW)    
Max Wind Speed 22 mph    
Max Gust Speed 36 mph    
Visibility 9 miles    
Events Snow    
T = Trace of Precipitation, MM = Missing Value Source: NWS Daily Summary

Daily Weather History Graph

Daily Weather History Graph

Search for Another Location

Airport:

Trip Planner

Search our weather history database for the weather conditions in past years. The results will help you decide how hot, cold, wet, or windy it might be!

Date:

Astronomy

Dec. 09, 2012 Rise Set
Actual Time 7:24 AM MST 4:37 PM MST
Civil Twilight 6:53 AM MST 5:09 PM MST
Nautical Twilight 6:18 AM MST 5:44 PM MST
Astronomical Twilight 5:44 AM MST 6:18 PM MST
Moon 2:58 AM MST (12/9) 1:48 PM MST (12/9)
Length of Visible Light 10h 15m
Length of Day
9h 13m
Waning Crescent, 18% of the Moon is Illuminated
Dec 9
Waning Crescent
Dec 13
New
Dec 19
First Quarter
Dec 28
Full
Jan 4
Last Quarter

Hourly Weather History & Observations

Time (MST) Temp. Windchill Dew Point Humidity Pressure Visibility Wind Dir Wind Speed Gust Speed Precip Events Conditions
12:02 AM 12.2 °F -0.2 °F 8.6 °F 85% 29.94 in 1.5 mi NW 9.2 mph - 0.00 in Snow Light Snow
12:43 AM 12.2 °F -1.0 °F 6.8 °F 79% 29.95 in 2.0 mi WNW 10.4 mph - 0.00 in Snow Light Snow
12:51 AM 12.2 °F -1.0 °F 6.8 °F 79% 29.94 in 7.0 mi WNW 10.4 mph - 0.00 in Snow Light Snow
12:53 AM 12.0 °F 0.5 °F 7.0 °F 80% 30.10 in 7.0 mi WNW 8.1 mph - 0.00 in   Overcast
1:53 AM 10.0 °F -2.9 °F 5.0 °F 80% 30.13 in 10.0 mi WNW 9.2 mph - 0.00 in   Overcast
2:53 AM 5.0 °F -5.6 °F 1.0 °F 84% 30.18 in 10.0 mi NW 5.8 mph - 0.00 in   Clear
3:50 AM 6.8 °F -7.8 °F 1.4 °F 79% 29.98 in 10.0 mi NNW 10.4 mph - 0.00 in   Scattered Clouds
3:53 AM 7.0 °F -6.6 °F 1.0 °F 77% 30.18 in 10.0 mi NNW 9.2 mph - 0.00 in   Mostly Cloudy
4:13 AM 5.0 °F -9.1 °F -0.4 °F 78% 29.99 in 10.0 mi NNW 9.2 mph - 0.00 in   Mostly Cloudy
4:31 AM 5.0 °F -10.0 °F -0.4 °F 78% 29.99 in 10.0 mi North 10.4 mph - 0.00 in   Scattered Clouds
4:53 AM 7.0 °F -7.5 °F 1.9 °F 80% 30.22 in 10.0 mi NNW 10.4 mph - 0.00 in   Mostly Cloudy
5:53 AM 3.9 °F -9.4 °F 1.0 °F 88% 30.27 in 10.0 mi North 8.1 mph - 0.00 in   Overcast
6:53 AM -2.9 °F - -6.0 °F 87% 30.34 in 10.0 mi Calm Calm - 0.00 in   Clear
7:53 AM -2.0 °F -12.2 °F -7.1 °F 79% 30.37 in 10.0 mi North 4.6 mph - N/A   Clear
8:53 AM 6.1 °F - 1.9 °F 83% 30.35 in 10.0 mi Calm Calm - 0.00 in   Clear
9:53 AM 12.0 °F 4.1 °F 3.0 °F 67% 30.34 in 10.0 mi ENE 4.6 mph - 0.00 in   Clear
10:53 AM 12.9 °F 5.2 °F 1.9 °F 62% 30.34 in 10.0 mi NNE 4.6 mph - 0.00 in   Clear
11:53 AM 14.0 °F 8.2 °F 1.0 °F 56% 30.32 in 10.0 mi North 3.5 mph - 0.00 in   Clear
12:53 PM 12.9 °F - 1.0 °F 59% 30.31 in 10.0 mi Calm Calm - 0.00 in   Clear
1:53 PM 14.0 °F 8.2 °F 1.0 °F 56% 30.30 in 10.0 mi NW 3.5 mph - 0.00 in   Scattered Clouds
2:53 PM 12.9 °F 0.7 °F -0.0 °F 56% 30.34 in 10.0 mi West 9.2 mph - 0.00 in   Partly Cloudy
3:53 PM 14.0 °F 0.5 °F 1.0 °F 56% 30.32 in 10.0 mi WSW 11.5 mph - N/A   Clear
4:53 PM 10.9 °F -1.8 °F 1.0 °F 64% 30.33 in 10.0 mi SW 9.2 mph - N/A   Scattered Clouds
5:53 PM 8.1 °F -9.0 °F -0.9 °F 67% 30.36 in 10.0 mi WSW 15.0 mph - N/A   Clear
6:53 PM 7.0 °F -9.1 °F -0.9 °F 70% 30.39 in 10.0 mi WSW 12.7 mph - N/A   Clear
7:53 PM 8.1 °F -8.4 °F -0.0 °F 70% 30.33 in 10.0 mi WSW 13.8 mph - N/A   Clear
8:53 PM 8.1 °F -10.2 °F -0.0 °F 70% 30.27 in 10.0 mi WSW 17.3 mph - N/A   Clear
9:53 PM 9.0 °F -9.0 °F -0.0 °F 67% 30.21 in 10.0 mi WSW 17.3 mph 28.8 mph N/A   Mostly Cloudy
10:53 PM 10.9 °F -8.3 °F 1.9 °F 67% 30.20 in 10.0 mi WSW 21.9 mph 32.2 mph N/A   Mostly Cloudy